NAVSTAR 79 (USA 304) (45854 NORAD) Tracking and Keplerian Element Data

This shows tracking and keplerian element data for the satellite.

Feedback or suggestion? Click here.




ElementValue
Catalog45854
NameNAVSTAR 79 (USA 304)
Epoch Orbit208
Epoch Day268.19627623
Epoch Year2020
RAAN111.5144
Inclination55.1009
Eccentricity0.0007844
Argument of Perigee108.6983
Mean Anonmoly251.455
Mean Motion2.00570328
Decay Rate-4E-08
L11 45854U 20041A 20268.19627623 -.00000004 00000-0 10000-3 0 9996
L22 45854 55.1009 111.5144 0007844 108.6983 251.4550 2.00570328 2082

Live tracking and technical data element details for NAVSTAR 79 (USA 304) (NORAD 45854). NAVSTAR 79 (USA 304) can be tracked NOW for your location showing map with azimuth and elevation plus other details from your city location.

Track the satellite on the map from your city or location and see movement details for azimuth, elevation, latitude, longitude, range, height, and movement on the map or in text.







IsCatalogInMostPopularTable: catalog: 45854, numindb: 11
Update: records affected: 1



GetName: 45854 NAVSTAR 79 (USA 304)

Hit Count: updated at: Sun, 27 Sep 2020 20:37:11 GMT